FDX1700 KIND-KEWR

Flight info

Callsign FDX1700
Flight time N/A
Altitude 19000
Route WTRVL148045 SLT FQM3
Aircraft B77L/H-SDE2E3FGHIJ5LORVWXY/LB1D1

Departure

Time N/A
Airport Indianapolis International Airport (KIND)

Arrival

Time 2026-05-05 00:56
Airport Newark Liberty International Airport (KEWR)
Time Latitude Longitude Altitude Speed Heading
2026-05-05 00:40 40.89300 -75.15310 9155 ft 317 kts 112°
2026-05-05 00:40 40.88582 -75.12774 8932 ft 318 kts 112°
2026-05-05 00:40 40.87761 -75.09898 8650 ft 314 kts 112°
2026-05-05 00:41 40.87003 -75.07218 8570 ft 308 kts 112°
2026-05-05 00:41 40.86256 -75.04572 8203 ft 308 kts 113°
2026-05-05 00:41 40.85518 -75.01959 7868 ft 300 kts 113°
2026-05-05 00:41 40.84768 -74.99309 7647 ft 308 kts 113°
2026-05-05 00:42 40.84017 -74.96657 7399 ft 306 kts 113°
2026-05-05 00:42 40.83281 -74.94055 7149 ft 306 kts 113°
2026-05-05 00:42 40.82538 -74.91431 6936 ft 307 kts 112°
2026-05-05 00:42 40.81810 -74.88776 6838 ft 307 kts 112°
2026-05-05 00:43 40.81084 -74.86121 6827 ft 307 kts 112°
2026-05-05 00:43 40.80352 -74.83453 6811 ft 309 kts 112°
2026-05-05 00:43 40.79630 -74.80823 6794 ft 308 kts 112°
2026-05-05 00:43 40.78897 -74.78165 6801 ft 309 kts 112°
2026-05-05 00:44 40.78160 -74.75494 6789 ft 309 kts 112°
2026-05-05 00:44 40.77430 -74.72850 6748 ft 307 kts 112°
2026-05-05 00:44 40.76940 -74.70108 6707 ft 305 kts 91°
2026-05-05 00:44 40.77281 -74.67383 6677 ft 302 kts 68°
2026-05-05 00:45 40.78073 -74.64792 6685 ft 306 kts 66°
2026-05-05 00:45 40.78912 -74.62190 6687 ft 309 kts 66°
2026-05-05 00:45 40.79761 -74.59565 6689 ft 310 kts 66°
2026-05-05 00:45 40.80587 -74.57007 6512 ft 300 kts 65°
2026-05-05 00:46 40.81398 -74.54496 5936 ft 301 kts 66°
2026-05-05 00:46 40.82224 -74.51942 5303 ft 304 kts 66°
2026-05-05 00:46 40.83050 -74.49384 4824 ft 301 kts 67°
2026-05-05 00:46 40.83865 -74.46861 4288 ft 300 kts 68°
2026-05-05 00:47 40.84683 -74.44326 3777 ft 298 kts 68°
2026-05-05 00:47 40.85489 -74.41828 3287 ft 296 kts 69°
2026-05-05 00:47 40.86280 -74.39378 3062 ft 288 kts 69°
2026-05-05 00:47 40.87065 -74.36939 3039 ft 290 kts 69°
2026-05-05 00:48 40.87858 -74.34477 3061 ft 293 kts 70°
2026-05-05 00:48 40.88666 -74.31963 3041 ft 304 kts 69°
2026-05-05 00:48 40.89498 -74.29409 3065 ft 295 kts 69°
2026-05-05 00:48 40.90285 -74.26986 2991 ft 283 kts 69°
2026-05-05 00:49 40.91071 -74.24548 3069 ft 287 kts 69°
2026-05-05 00:49 40.91843 -74.22154 3042 ft 276 kts 69°
2026-05-05 00:49 40.92559 -74.19938 3024 ft 254 kts 69°
2026-05-05 00:49 40.92990 -74.17766 3023 ft 237 kts 93°
2026-05-05 00:50 40.92731 -74.15709 3024 ft 221 kts 118°
2026-05-05 00:50 40.91949 -74.14079 3025 ft 200 kts 142°
2026-05-05 00:50 40.90903 -74.12972 3032 ft 190 kts 153°
2026-05-05 00:50 40.89868 -74.11997 3033 ft 186 kts 153°
2026-05-05 00:51 40.88769 -74.11098 3035 ft 184 kts 157°
2026-05-05 00:51 40.87666 -74.10265 3032 ft 183 kts 157°
2026-05-05 00:51 40.86556 -74.09437 3030 ft 183 kts 157°
2026-05-05 00:51 40.85444 -74.08607 3030 ft 182 kts 157°
2026-05-05 00:52 40.84307 -74.07886 3023 ft 178 kts 171°
2026-05-05 00:52 40.83112 -74.07739 3012 ft 172 kts 198°
2026-05-05 00:52 40.82019 -74.08334 2805 ft 164 kts 210°
2026-05-05 00:52 40.81037 -74.09008 2557 ft 154 kts 208°
2026-05-05 00:53 40.80115 -74.09590 2363 ft 137 kts 207°
2026-05-05 00:53 40.79275 -74.10101 2164 ft 130 kts 208°
2026-05-05 00:53 40.78440 -74.10642 2000 ft 137 kts 208°
2026-05-05 00:53 40.77576 -74.11197 1793 ft 140 kts 207°
2026-05-05 00:54 40.76674 -74.11755 1581 ft 142 kts 207°
2026-05-05 00:54 40.75773 -74.12332 1340 ft 145 kts 210°
2026-05-05 00:54 40.74895 -74.12914 1108 ft 141 kts 209°
2026-05-05 00:54 40.74015 -74.13466 908 ft 140 kts 208°
2026-05-05 00:55 40.73124 -74.14024 736 ft 142 kts 208°
2026-05-05 00:55 40.72233 -74.14585 552 ft 146 kts 207°
2026-05-05 00:55 40.71317 -74.15169 359 ft 146 kts 208°
2026-05-05 00:55 40.70430 -74.15733 174 ft 136 kts 207°
2026-05-05 00:56 40.69598 -74.16264 27 ft 127 kts 207°
2026-05-05 00:56 40.68955 -74.16669 24 ft 84 kts 205°
2026-05-05 00:56 40.68531 -74.16936 24 ft 51 kts 206°
2026-05-05 00:56 40.68294 -74.17142 23 ft 32 kts 227°
2026-05-05 00:57 40.68193 -74.17323 24 ft 16 kts 236°
2026-05-05 00:57 40.68156 -74.17394 24 ft 2 kts 243°
2026-05-05 00:57 40.68156 -74.17395 24 ft 0 kts 246°
2026-05-05 00:59 40.68150 -74.17438 24 ft 9 kts 275°
2026-05-05 00:59 40.68181 -74.17540 24 ft 14 kts 296°
2026-05-05 00:59 40.68202 -74.17666 24 ft 12 kts 236°
2026-05-05 00:59 40.68149 -74.17720 24 ft 8 kts 210°
2026-05-05 01:00 40.68100 -74.17752 24 ft 7 kts 206°
2026-05-05 01:00 40.68060 -74.17778 24 ft 6 kts 205°
2026-05-05 01:00 40.68024 -74.17800 23 ft 5 kts 205°
2026-05-05 01:00 40.67970 -74.17834 24 ft 12 kts 205°
2026-05-05 01:01 40.67879 -74.17891 24 ft 15 kts 205°
2026-05-05 01:01 40.67787 -74.17949 24 ft 13 kts 205°
2026-05-05 01:01 40.67712 -74.17997 24 ft 10 kts 206°
2026-05-05 01:01 40.67665 -74.18031 24 ft 5 kts 217°
2026-05-05 01:02 40.67644 -74.18089 24 ft 8 kts 277°
2026-05-05 01:02 40.67681 -74.18156 24 ft 9 kts 310°
2026-05-05 01:02 40.67713 -74.18227 24 ft 9 kts 295°
2026-05-05 01:02 40.67731 -74.18278 24 ft 2 kts 291°
2026-05-05 01:03 40.67734 -74.18288 24 ft 2 kts 290°
2026-05-05 01:03 40.67720 -74.18353 24 ft 8 kts 222°
2026-05-05 01:03 40.67701 -74.18366 24 ft 0 kts 204°
2026-05-05 01:03 40.67692 -74.18372 24 ft 0 kts 204°